Weather History for Rickenbacker, OH

Change the Weather History Date:

Sunday, December 9, 2012

  Actual Average Record
Temperature  
Mean Temperature 48 °F -  
Max Temperature 54 °F 42 °F 54 °F (2008)
Min Temperature 41 °F 29 °F 14 °F (2010)
Degree Days  
Heating Degree Days 18    
Moisture  
Dew Point 42 °F    
Average Humidity 83    
Maximum Humidity 88    
Minimum Humidity 77    
Precipitation  
Precipitation 0.00 in - - ()
Sea Level Pressure  
Sea Level Pressure 29.93 in    
Wind  
Wind Speed 9 mph (ESE)    
Max Wind Speed 15 mph    
Max Gust Speed 18 mph    
Visibility 10 miles    
Events Rain , Thunderstorm    
Averages and records for this station are not official NWS values.
T = Trace of Precipitation, MM = Missing Value Source: NWS Daily Summary

Daily Weather History Graph

Daily Weather History Graph

Search for Another Location

Airport:

Trip Planner

Search our weather history database for the weather conditions in past years. The results will help you decide how hot, cold, wet, or windy it might be!

Date:

Astronomy

Dec. 09, 2012 Rise Set
Actual Time 7:41 AM EST 5:06 PM EST
Civil Twilight 7:11 AM EST 5:37 PM EST
Nautical Twilight 6:37 AM EST 6:11 PM EST
Astronomical Twilight 6:04 AM EST 6:43 PM EST
Moon 3:13 AM EST (12/9) 2:12 PM EST (12/9)
Length of Visible Light 10h 25m
Length of Day
9h 25m
Waning Crescent, 19% of the Moon is Illuminated
Dec 9
Waning Crescent
Dec 13
New
Dec 20
First Quarter
Dec 28
Full
Jan 4
Last Quarter

Hourly Weather History & Observations

Time (EST) Temp. Windchill Dew Point Humidity Pressure Visibility Wind Dir Wind Speed Gust Speed Precip Events Conditions
12:15 AM 44.1 °F 38.6 °F 39.0 °F 82% 30.06 in 10.0 mi NE 10.4 mph - N/A   Overcast
12:35 AM 43.7 °F 39.1 °F 38.7 °F 82% 30.06 in 10.0 mi NE 8.1 mph - N/A   Overcast
12:55 AM 43.7 °F 39.1 °F 38.7 °F 82% 30.06 in 10.0 mi ENE 8.1 mph - N/A   Overcast
1:15 AM 43.9 °F 39.3 °F 38.7 °F 82% 30.06 in 10.0 mi NE 8.1 mph - N/A   Overcast
1:35 AM 44.1 °F 38.6 °F 38.5 °F 81% 30.07 in 10.0 mi ENE 10.4 mph - N/A   Overcast
1:55 AM 44.1 °F 40.8 °F 38.5 °F 81% 30.07 in 10.0 mi NE 5.8 mph - N/A   Overcast
2:15 AM 43.9 °F 38.3 °F 38.5 °F 81% 30.06 in 10.0 mi NE 10.4 mph - N/A   Overcast
2:35 AM 43.9 °F 37.5 °F 38.1 °F 80% 30.07 in 10.0 mi NE 12.7 mph - N/A   Overcast
2:55 AM 43.9 °F 38.3 °F 37.9 °F 80% 30.07 in 10.0 mi NE 10.4 mph - N/A   Overcast
3:15 AM 43.7 °F 37.7 °F 37.8 °F 80% 30.07 in 10.0 mi ENE 11.5 mph - N/A   Overcast
3:35 AM 43.7 °F 36.9 °F 37.8 °F 80% 30.06 in 10.0 mi NE 13.8 mph 17.3 mph N/A   Overcast
3:55 AM 43.5 °F 37.9 °F 37.6 °F 80% 30.06 in 10.0 mi ENE 10.4 mph - N/A   Overcast
4:15 AM 43.2 °F 36.2 °F 37.2 °F 80% 30.06 in 10.0 mi NE 13.8 mph - N/A   Overcast
4:35 AM 43.2 °F 37.4 °F 36.7 °F 78% 30.06 in 10.0 mi ENE 10.4 mph - N/A   Overcast
4:55 AM 42.8 °F 36.6 °F 36.7 °F 79% 30.05 in 10.0 mi ENE 11.5 mph - N/A   Overcast
5:15 AM 42.8 °F 36.2 °F 36.5 °F 78% 30.05 in 10.0 mi ENE 12.7 mph - N/A   Overcast
5:35 AM 42.8 °F 37.5 °F 36.5 °F 78% 30.05 in 10.0 mi ENE 9.2 mph - N/A   Overcast
5:55 AM 42.4 °F 37.5 °F 36.5 °F 79% 30.06 in 10.0 mi NE 8.1 mph - N/A   Overcast
6:15 AM 42.3 °F 36.3 °F 36.1 °F 79% 30.06 in 10.0 mi NE 10.4 mph - N/A   Overcast
6:35 AM 42.3 °F 37.3 °F 36.0 °F 78% 30.06 in 10.0 mi NE 8.1 mph - N/A   Overcast
6:55 AM 42.3 °F 34.8 °F 35.8 °F 78% 30.06 in 10.0 mi ENE 15.0 mph - N/A   Overcast
7:15 AM 42.1 °F 35.7 °F 35.6 °F 78% 30.06 in 10.0 mi ENE 11.5 mph 16.1 mph N/A   Overcast
7:35 AM 41.9 °F 35.0 °F 35.6 °F 78% 30.05 in 10.0 mi ENE 12.7 mph - N/A   Overcast
7:55 AM 41.9 °F 35.0 °F 35.6 °F 78% 30.04 in 10.0 mi ENE 12.7 mph 18.4 mph N/A   Overcast
8:15 AM 41.9 °F 35.9 °F 35.6 °F 78% 30.04 in 10.0 mi ENE 10.4 mph - N/A   Overcast
8:35 AM 41.9 °F 35.9 °F 35.8 °F 79% 30.04 in 10.0 mi ENE 10.4 mph 16.1 mph N/A   Overcast
8:55 AM 42.1 °F 36.1 °F 36.0 °F 79% 30.04 in 10.0 mi East 10.4 mph - N/A   Overcast
9:15 AM 42.6 °F 38.4 °F 36.3 °F 78% 30.03 in 10.0 mi East 6.9 mph - N/A   Overcast
9:35 AM 43.2 °F 38.4 °F 36.7 °F 78% 30.03 in 10.0 mi East 8.1 mph - N/A   Overcast
9:55 AM 43.7 °F 39.1 °F 37.2 °F 78% 30.03 in 10.0 mi East 8.1 mph - N/A   Overcast
10:15 AM 44.1 °F 39.0 °F 37.4 °F 77% 30.01 in 10.0 mi East 9.2 mph - N/A   Overcast
10:35 AM 44.2 °F 40.3 °F 37.9 °F 79% 30.01 in 10.0 mi ESE 6.9 mph - N/A   Overcast
10:55 AM 45.0 °F 41.2 °F 38.7 °F 79% 30.00 in 10.0 mi ESE 6.9 mph - N/A   Overcast
11:15 AM 45.9 °F 41.2 °F 39.2 °F 78% 29.98 in 10.0 mi ESE 9.2 mph - N/A   Overcast
11:35 AM 45.9 °F 41.7 °F 39.4 °F 78% 29.97 in 10.0 mi ESE 8.1 mph - N/A   Overcast
11:55 AM 46.4 °F 43.5 °F 39.7 °F 78% 29.96 in 10.0 mi ESE 5.8 mph - N/A   Overcast
12:15 PM 46.6 °F - 40.6 °F 80% 29.95 in 10.0 mi East 5.8 mph - N/A Rain Light Rain
12:35 PM 46.8 °F - 41.4 °F 81% 29.93 in 10.0 mi ESE 6.9 mph - N/A   Overcast
12:55 PM 47.3 °F - 41.9 °F 82% 29.92 in 10.0 mi SE 5.8 mph - N/A   Overcast
1:15 PM 47.3 °F - 42.3 °F 83% 29.91 in 10.0 mi SE 4.6 mph - N/A Rain Light Rain
1:55 PM 47.3 °F - 42.8 °F 84% 29.88 in 7.0 mi ESE 5.8 mph - N/A   Light Drizzle
2:15 PM 47.3 °F - 43.2 °F 86% 29.87 in 10.0 mi SE 4.6 mph - N/A Rain Light Rain
2:35 PM 47.3 °F - 43.2 °F 86% 29.87 in 10.0 mi Calm Calm - N/A Rain Light Rain
2:55 PM 47.7 °F - 43.7 °F 86% 29.85 in 10.0 mi SE 4.6 mph - N/A   Overcast
3:15 PM 48.4 °F - 44.4 °F 86% 29.85 in 10.0 mi SSE 6.9 mph - N/A   Overcast
3:35 PM 49.3 °F - 45.3 °F 86% 29.85 in 10.0 mi SSE 10.4 mph - N/A   Overcast
3:55 PM 49.5 °F - 45.5 °F 86% 29.84 in 10.0 mi SSE 8.1 mph - N/A   Overcast
4:15 PM 49.6 °F - 45.7 °F 86% 29.84 in 10.0 mi South 10.4 mph - N/A   Overcast
4:35 PM 50.0 °F - 46.0 °F 86% 29.83 in 10.0 mi South 6.9 mph - N/A   Overcast
4:55 PM 50.0 °F - 46.2 °F 87% 29.83 in 10.0 mi South 10.4 mph - N/A   Overcast
5:15 PM 50.4 °F - 46.6 °F 87% 29.83 in 10.0 mi South 9.2 mph - N/A   Overcast
5:35 PM 50.4 °F - 46.8 °F 87% 29.83 in 10.0 mi South 8.1 mph - N/A   Mostly Cloudy
5:55 PM 50.7 °F - 46.9 °F 87% 29.82 in 10.0 mi South 10.4 mph - N/A   Overcast
6:15 PM 51.1 °F - 47.3 °F 87% 29.81 in 10.0 mi South 10.4 mph - N/A   Overcast
6:35 PM 51.6 °F - 47.7 °F 86% 29.81 in 10.0 mi South 10.4 mph - N/A Rain Light Rain
6:55 PM 52.0 °F - 48.2 °F 87% 29.80 in 10.0 mi South 11.5 mph - N/A   Overcast
7:15 PM 52.2 °F - 48.4 °F 87% 29.80 in 10.0 mi South 10.4 mph - N/A Rain Light Rain
7:35 PM 52.3 °F - 48.6 °F 87% 29.79 in 10.0 mi South 11.5 mph - N/A   Overcast
7:55 PM 52.7 °F - 48.6 °F 86% 29.79 in 10.0 mi South 10.4 mph - N/A   Overcast
8:15 PM 52.7 °F - 48.7 °F 86% 29.78 in 10.0 mi South 9.2 mph - N/A   Overcast
8:35 PM 52.7 °F - 48.9 °F 87% 29.77 in 10.0 mi South 8.1 mph - N/A   Overcast
8:55 PM 52.7 °F - 49.1 °F 88% 29.76 in 10.0 mi South 9.2 mph - N/A Rain Light Rain
9:15 PM 52.9 °F - 49.1 °F 87% 29.74 in 10.0 mi South 9.2 mph - N/A Thunderstorm Overcast
9:35 PM 53.2 °F - 49.6 °F 88% 29.73 in 10.0 mi South 12.7 mph 18.4 mph N/A   Overcast
9:55 PM 53.8 °F - 50.0 °F 87% 29.72 in 10.0 mi South 11.5 mph - N/A   Overcast
10:15 PM 54.0 °F - 50.2 °F 87% 29.71 in 5.0 mi South 10.4 mph - N/A Rain Heavy Rain
10:35 PM 54.0 °F - 50.4 °F 88% 29.70 in 10.0 mi South 9.2 mph - N/A Rain Light Rain
10:55 PM 54.1 °F - 50.5 °F 88% 29.70 in 5.0 mi South 9.2 mph - N/A Rain Heavy Rain
11:15 PM 54.5 °F - 51.1 °F 88% 29.70 in 5.0 mi SSW 9.2 mph - N/A Rain Heavy Rain
11:35 PM 54.3 °F - 50.9 °F 88% 29.69 in 3.0 mi West 12.7 mph 18.4 mph N/A Rain Rain
11:55 PM 53.8 °F - 49.1 °F 84% 29.70 in 10.0 mi WSW 8.1 mph - N/A Rain Light Rain